www.pogodaiklimat.ru
Время
и дата
14:53 30.12
15:01 30.12
15:15 30.12
15:42 30.12
15:53 30.12
16:30 30.12
16:53 30.12
17:53 30.12
18:53 30.12
19:53 30.12
20:53 30.12
21:53 30.12
22:53 30.12
23:53 30.12
00:53 31.12
01:53 31.12
02:34 31.12
02:53 31.12
03:53 31.12
04:53 31.12
05:53 31.12
06:20 31.12
06:53 31.12
07:53 31.12
08:53 31.12
09:00 31.12
09:11 31.12
09:41 31.12
09:53 31.12
10:12 31.12
10:32 31.12
10:50 31.12
10:53 31.12
11:03 31.12
11:11 31.12
11:30 31.12
11:37 31.12
11:44 31.12
11:53 31.12
12:10 31.12
12:53 31.12
13:42 31.12
13:53 31.12
14:17 31.12
14:29 31.12
14:53 31.12
15:53 31.12
16:53 31.12
Ветер
(напр.,м/с)
Видим. Явления Облачность Т
(С)
Тd
(С)
f
(%)
Тe
(С)
Тes
(С)
Комфортность P
(гПа)
Po
(гПа)
Тmin
(С)
Tmax
(С)
R
(мм)
R24
(мм)
S
(см)
Ю 3 13 км слабый дождь 10/10 450 м +23.3 +18.9 76 +30 +30 очень
душно
1010.7 1008.4
Ю 3 3 км сильный дождь 10/10 450 м +22.2 +19.4 84 +28 +28 душно 1008.7
Ю 2 5 км дождь, дымка 10/8 450 м
[Ac]
+21.7 +20.0 90 +27 +27 душно 1008.4
Ю 2 16 км слабый дождь 10/10 390 м +21.7 +18.3 81 +26 +26 душно 1008.0
Ю 2 11 км 10/8 450 м
[Ac]
+21.7 +18.9 84 +27 +27 душно 1010.3 1008.0
ЮВ 3 13 км 10/10 420 м +22.2 +19.4 84 +28 +28 душно 1007.7
ЮВ 4
{4}
14 км 10/8 420 м
[Ac]
+22.2 +19.4 84 +28 +28 душно 1009.6 1007.4
ЮВ 3 16 км 10/8 420 м
[Ac]
+22.2 +19.4 84 +28 +28 душно 1009.9 1007.7 +20.6 +26.1 4.8
ЮВ 3 16 км 10/10 390 м +21.7 +19.4 87 +27 +27 душно 1010.2 1008.0
ЮВ 3
{4}
14 км 10/10 330 м +21.7 +19.4 87 +27 +27 душно 1010.0 1007.7
ЮВ 3 16 км 10/10 360 м +22.2 +19.4 84 +28 +28 душно 1010.2 1008.0
ЮВ 3
{5}
16 км 10/10 390 м +21.7 +19.4 87 +27 +27 душно 1009.8 1007.7
ЮВ 3 14 км 10/10 330 м +21.7 +19.4 87 +27 +27 душно 1009.3 1007.0
ЮВ 3 14 км 10/10 330 м +21.7 +19.4 87 +27 +27 душно 1008.9 1006.7 +21.7 +22.2
ЮВ 3 14 км 10/10 330 м +21.7 +19.4 87 +27 +27 душно 1008.6 1006.3
ЮВ 3 14 км 10/8 330 м
[Ci]
+21.7 +18.9 84 +27 +27 душно 1008.1 1006.0
ЮВ 3 14 км 10/10 330 м +21.1 +18.9 87 +25 +25 комфорт 1005.7
ЮВ 2
{4}
14 км 10/10 330 м +21.1 +18.9 87 +25 +25 комфорт 1007.8 1005.7
ЮВ 3 16 км 10/10 360 м +21.1 +18.9 87 +25 +25 комфорт 1007.2 1005.0
ЮВ 3
{4}
14 км 10/10 330 м +21.1 +18.9 87 +25 +25 комфорт 1006.6 1004.3
В 2 13 км 10/10 300 м +20.0 +18.3 90 +23 +23 комфорт 1006.0 1003.6 +20.0 +21.7 4.8
В 2 14 км 8/2 330 м
[Ci]
+20.0 +17.8 87 +23 +23 комфорт 1003.3
ЮВ 2 14 км 8/5 360 м
[Ci]
+19.4 +17.8 90 +21 +21 комфорт 1006.0 1004.0
ЮВ 3 16 км 10/5 360 м
[Ac Ci]
+21.1 +18.3 84 +25 +25 комфорт 1005.9 1003.6
ЮВ 3 13 км слабый дождь 10/5 450 м
[Ac]
+20.6 +18.3 87 +24 +24 комфорт 1005.8 1003.6
ЮВ 4
{5}
13 км слабый дождь 10/5 240 м
[Ac]
+20.6 +18.3 87 +24 +24 комфорт 1003.6
В 3 13 км слабый дождь 10/8 240 м
[Ac]
+20.6 +18.3 87 +24 +24 комфорт 1003.6
В 3 13 км 8/8 240 м +20.0 +17.8 87 +23 +23 комфорт 1003.3
В 3 11 км слабый дождь 10/8 210 м
[Ac]
+20.0 +17.8 87 +23 +23 комфорт 1005.5 1003.3
В 3 10 км слабый дождь, дымка 10/8 210 м
[Ac]
+20.0 +18.3 90 +23 +23 комфорт 1002.3
ЮВ 2
{4}
3 км гроза со слабым дождем, дымка 10/10 210 м +20.0 +18.3 90 +23 +23 комфорт 1003.0
ЮВ 2 4 км гроза со слабым дождем, дымка 10/10 180 м +19.0 +18.0 94
В 2 4 км гроза с сильным дождем, дымка 10/10 180 м +19.4 +18.3 93 1004.9
ЮВ 1 2 км гроза с сильным дождем, дымка 10/10 150 м +19.4 +18.3 93 +22 +22 комфорт 1002.6
ЮВ 1 1 км гроза с сильным дождем, дымка 10/10 150 м +19.4 +18.3 93
В 3 2 км гроза с сильным дождем, дымка 10/10 450 м +19.4 +18.3 93
ЮВ 3 2 км гроза с сильным дождем, дымка 10/10 150 м +20.0 +18.3 90 +23 +23 комфорт 1001.6
ЮВ 4 800 м гроза с сильным дождем, туман 10/10 150 м +19.4 +18.3 93
ЮВ 4
{8}
2 км гроза с сильным дождем, дымка 10/10 150 м +20.0 +18.3 90 1003.3 +19.4 +21.1 38.4
Ю 3 5 км слабый дождь, дымка 10/8 600 м
[Ac]
+20.0 +18.3 90 +23 +23 комфорт 1000.9
ЮВ 2 16 км слабый дождь 10/8 600 м
[Ac]
+20.6 +18.3 87 +25 +25 комфорт 1002.0 999.9
Ю 1 4 км сильный дождь, дымка 10/8 240 м
[Ac]
+20.0 +18.3 90 +23 +24 комфорт 999.2
Ю 2 5 км слабый дождь, дымка 10/8 210 м
[Ac]
+20.0 +18.3 90 +23 +23 комфорт 1001.7 999.6
ЮЗ 4
{6}
16 км слабый дождь 10/10 210 м +14.4 +12.8 90 +12 +12 999.6
ЮЗ 3 16 км 10/10 210 м +13.9 +12.2 89 +12 +12 999.9
З 3 13 км слабый дождь 10/10 180 м +12.2 +10.6 90 +9 +9 1002.0 999.9 6.4
ЮЗ 4 16 км 10/10 180 м +11.7 +10.0 89 +8 +8 1003.4 1001.3
ЮЗ 4
{6}
16 км 10/10 210 м +10.0 +8.3 89 +6 +6 1005.0 1003.0
Местоположение метеостанции Houston Hobby Airport: широта 29.6375 долгота -95.2825 высота над уровнем моря 14 м.
В архиве по умолчанию представлена погода в Хьюстоне за последние 1-2 суток. Обновление информации о фактической погоде в базе происходит ежечасно! Архивные данные за месяц целиком и за предыдущие месяцы Вы можете получить, выбрав интересующий диапазон дат из раскрывающегося списка и нажав кнопку "Ввод!".
Внимание! Архив погоды МЕТАР в базе сайта по станциям, не включенным в климатический монитор, хранится не более 60 дней. Нет смысла пытаться выбрать более раннюю дату.
*Определитесь, кто Вы:
Внимание! Время в таблицах - местное (без учета летнего времени). Для получения всемирного времени необходимо вычесть поправку, которая равна -6 ч.
Смотрите также архив погоды в соседних городах и на ближайших метеорологических станциях:
Партнеры нашего сайта:      
Пояснения к столбцам:
  • Ветер - указаны скорость ветра в м/с - средняя за 10 мин, порывы в срок и между сроками (в фигурных скобках) и направление, откуда дует ветер: С - северный,
  • СВ - северо-восточный, В - восточный, ЮВ - юго-восточный, Ю - южный, ЮЗ - юго-западный, З - западный, СЗ - северо-западный.
  • Видимость - горизонтальная дальность видимости в метрах или километрах. При видимости от 1 до 10 км при отсутствии осадков обычно наблюдается дымка, при ухудшении видимости до 1 км и менее - туман. В сухую погоду видимость может ухудшаться дымом, пылью или мглою.
  • Явления - указаны атмосферные явления, наблюдавшиеся в срок или в последний час перед сроком; фигурными скобками обозначены явления, наблюдавшиеся между сроками (за 1-3 часа до срока); квадратными скобками обозначены град или гололедные отложения с указанием их диаметра в мм.
  • Облачность - указаны через наклонную черту общая и нижняя облачность в баллах и высота нижней границы облаков в метрах; квадратными скобками обозначены формы облаков: Ci - перистые, Cs - перисто-слоистые, Cc - перисто-кучевые, Ac - высококучевые, As - высокослоистые, Sc - слоисто-кучевые, Ns - слоисто-дождевые, Cu - кучевые, Cb - кучево-дождевые. Подробнее классификацию облаков см. в Атласе облаков (PDF).
  • T - Температура воздуха - температура, измеренная на высоте 2 м над землей.
  • Td - Температура точки росы - температура, при понижении до которой содержащийся в воздухе водяной пар достигнет насыщения.
  • f - Относительная влажность воздуха - влажноcть воздуха, измеренная на высоте 2 м над землей.
  • Te - Эффективная температура - температура, которую ощущает одетый по сезону человек в тени. Характеристика душности погоды. При расчете учитывается влияние влажности воздуха и скорости ветра на теплоощущения человека.
  • Tes - Эффективная температура на солнце - температура, которую ощущает человек, с поправкой на солнечный нагрев. Характеристика знойности погоды. Зависит от высоты солнца над горизонтом, облачности и скорости ветра. Ночью, в пасмурную погоду, а также при ветре 12 м/с и более поправка равна нулю.
  • P - Атмосферное давление - приведенное к уровню моря атмосферное давление.
  • Po - Атмосферное давление - измеренное на уровне метеостанции атмосферное давление.
  • Tmin - Минимальная температура - минимум температуры воздуха на высоте 2 м над землей.
  • Tmax - Максимальная температура - максимум температуры воздуха на высоте 2 м над землей.
  • R - Количество осадков - Количество выпавших осадков за период времени, мм. При наведении курсора мыши на число - период времени, за который выпало указанное количество осадков.
  • R24 - Количество осадков - Количество выпавших осадков за 24 часа, мм.
  • S - Снежный покров - Высота снежного покрова, см. При наведении курсора мыши на число - состояние снежного покрова и степень покрытия местности в баллах.